Location: Chèvreville
(49.1099°N, 2.8495°E)
Time: 07:30:00
(UTC+00:00)

Cosmos 1656 - Pass Details

Date: 28 January 2023
Orbit: 798 x 848 km, 71.1° (Epoch: 24 March)

Event Time Altitude Azimuth Distance (km) Brightness Sun altitude
Rises 17:13:31 0° 219° (SW) 3,333 8.0 -6.1°
Reaches altitude 10° 17:15:59 10° 223° (SW) 2,397 7.3 -6.5°
Maximum altitude 17:21:23 58° 303° (WNW) 938 4.2 -7.3°
Drops below altitude 10° 17:26:46 10° 22° (NNE) 2,388 5.7 -8.1°
Sets 17:29:13 0° 27° (NNE) 3,319 6.4 -8.5°
Enters shadow 17:29:19 - 27° (NNE) 3,355 6.4 -8.5°
